Weather in Dubovskoe

Russia / Rostov Oblast     47°24′44″N   42°46′15″E
temp.,
°C
wind,
m/s
gust,
m/s
humid.,
%
clouds,
%
prec.,
mm/h
press.,
hPa
HPBL,
m
15 august, mon
mon1500:00+28ene611255 0.0 1009209
03:00+25ene5122886 0.0 1010192
06:00+26e6142693 0.0 1010383
09:00+33ese10151737 0.0 10091463
12:00+38ese11131361 0.0 10093112
15:00+38ese11131365 0.0 10083351
18:00+37e91114100 0.0 10073456
21:00+33e9151999 0.0 1009826
16 august, tue
tue1600:00+30e1017240 0.0 1010734
03:00+28e81725100 0.0 1011647
06:00+27e8172074 0.0 1011627
09:00+32e91318100 0.0 1011968
12:00+36e81116100 0.0 10102015
15:00+40ese8101282 0.0 10083732
18:00+38e6101488 0.0 1007863
21:00+35se61417100 0.0 1008596
17 august, wed
wed1700:00+29e3424100 0.0 100943
03:00+26e47322 0.0 1009112
06:00+25e36342 0.0 1009141
09:00+32se443099 0.0 1009770
12:00+37s112129 0.0 10081705
15:00+38nnw43195 0.0 10072336
18:00+36nw44225 0.0 1007764
21:00+31nw332821 0.0 100626
18 august, thu
thu1800:00+28wnw41043100 0.1 1006174
03:00+27nw4941100 0.1 1006175
06:00+27nw3744100 0.1 1007180
09:00+31nnw4537100 0.8 1008476
12:00+35n432867 0.3 10081500
15:00+37n43255 0.4 10072086
18:00+34nne4533100 0.7 1007326
21:00+25se136796 1.0 100871
19 august, fri
fri1900:00+25se51253100 2.6 1008312
03:00+22se61065100 5.5 1010323
06:00+23se4956100 0.3 1009261
09:00+28se4534100 0.3 1011932
12:00+31ese4427100 0.0 10101407
15:00+33se6627100 0.0 10101879
18:00+32se61024100 0.0 10101569
21:00+28ese71425100 0.0 1011510